Regional Weather Roundup
Issued by NWS

Home | Current Version | Previous Version | Text Only | Print | Product List | Glossary On
Versions: 1 2 3 4 5 6 7 8 9 10 11 12 13 14 15 16 17 18 19 20 21 22 23 24 25 26 27 28 29 30 31 32 33 34 35 36 37 38 39 40 41 42 43 44 45 46 47 48 49 50
000
ASUS43 KMPX 240201
RWRMN
WEATHER ROUNDUP FOR MINNESOTA
NATIONAL WEATHER SERVICE TWIN CITIES/CHANHASSEN MN
900 PM CDT SAT SEP 23 2017


NOTE: "FAIR" INDICATES FEW OR NO CLOUDS BELOW 12,000 FEET WITH NO
SIGNIFICANT WEATHER AND/OR OBSTRUCTIONS TO VISIBILITY. N/A MEANS
CURRENT SKY AND/OR WEATHER CONDITIONS ARE NOT AVAILABLE.

MNZ060>063-068>070-240300-
   Twin Cities Metro

CITY           SKY/WX    TMP DP  RH WIND       PRES   REMARKS
TWIN CITIES    MOCLDY    81  71  71 SE9       29.92R
ST PAUL        PTCLDY    77  73  87 CALM      29.93R
CRYSTAL        MOCLDY    77  69  76 N3        29.91R
BLAINE         CLOUDY    79  72  78 CALM      29.93R
LAKEVILLE      CLOUDY    73  68  83 CALM      29.94R
EDEN PRAIRIE   MOCLDY    80  69  69 SE8       29.91R
SOUTH ST PAUL  CLOUDY    79  69  73 CALM      29.93R
LAKE ELMO      FAIR      77  70  78 E3        29.96R
$$
MNZ001>005-007-008-013>017-022>024-027-028-240300-
   Northwest Minnesota

CITY           SKY/WX    TMP DP  RH WIND       PRES   REMARKS
BEMIDJI        CLOUDY    54  53  95 NE6       30.03F
HALLOCK          N/A     57  50  77 N10       30.05F
ROSEAU           N/A     57  52  82 N6        30.06F
WARROAD        CLOUDY    55  52  88 N6        30.08S
CROOKSTON      CLOUDY    57  52  82 NE5       30.04R
FOSSTON        LGT RAIN  54  54 100 N6        30.05R
DETROIT LAKES  CLOUDY    54  54 100 NE5       30.03F
MOORHEAD       RAIN      55  52  88 NE9       30.02S
PARK RAPIDS    CLOUDY    57  54  89 N3        30.04R
MAHNOMEN       DRIZZLE   54  52  94 NE6       30.04R
$$
MNZ006-009>011-018-025>026-240300-
   North Central Minnesota

CITY           SKY/WX    TMP DP  RH WIND       PRES   REMARKS
BAUDETTE       CLOUDY    55  53  93 N7        30.04F
FLAG ISLAND    CLOUDY    55  52  88 N9        30.06F
INTL FALLS     CLOUDY    56  54  93 NW5       30.05S
WASKISH        CLOUDY    55  54  94 NE5       30.04F
BIG FORK       CLOUDY    57  54  88 N5        30.03F
LONGVILLE      RAIN      57  55  94 NE6       30.01F
GRAND RAPIDS   LGT RAIN  59  57  93 VRB3      30.05S
CRANE LAKE     CLOUDY    57  55  94 CALM      30.06S
ORR            CLOUDY    57  54  88 CALM      30.02S
COOK           CLOUDY    59  55  88 CALM      30.04S
WALKER         CLOUDY    55  54  95 NE6       30.04R
$$
MNZ012-019>021-037-240300-
   Northeast Minnesota

CITY           SKY/WX    TMP DP  RH WIND       PRES   REMARKS
DULUTH         CLOUDY    67  66  97 N8        30.00R
ELY            CLOUDY    63  61  94 CALM      30.04R
HIBBING        CLOUDY    60  56  86 N8        30.02R
EVELETH        CLOUDY    63  57  80 N6        30.03S
DULUTH HARBOR  CLOUDY    72  68  88 SE5       29.98R
GRAND MARAIS     N/A     73  65  75 N10G22    29.95R
$$
MNZ029>031-032-039>041-046>048-054>057-064-240300-
   West Central Minnesota

CITY           SKY/WX    TMP DP  RH WIND       PRES   REMARKS
FERGUS FALLS   CLOUDY    57  57 100 NE8       30.00R
WHEATON        RAIN      55  54  94 N8        30.00F
ALEXANDRIA     CLOUDY    58  58 100 VRB3      30.03R
ELBOW LAKE     RAIN      58  57  99 NE6       30.00R
WADENA         LGT RAIN  55  55 100 N8        30.01R
GLENWOOD       TSTM      59  57  94 N9        29.99R
APPLETON       TSTM      59  55  88 N10       29.95R
BENSON         LGT RAIN  61  59  94 E7        29.95F
ORTONVILLE     TSTM      55  54  94 NE9       29.96F
MADISON        CLOUDY    59  59 100 N13G18    29.93F
WILLMAR        MOCLDY    66  64  94 CALM      29.95S
$$
MNZ033>034-036-042>043-049>051-058-059-240300-
   Central Minnesota

CITY           SKY/WX    TMP DP  RH WIND       PRES   REMARKS
ST CLOUD       TSTM      65  65 100 N12       29.96R FOG
SAUK CENTRE    LGT RAIN  60  59  97 NE6       29.97S
PAYNESVILLE    LGT RAIN  65  65  99 NE7       29.96R
AITKIN         LGT RAIN  61  57  88 CALM      30.00S
PINE RIVER     RAIN      55  54  94 NE5       30.03F
BRAINERD       LGT RAIN  59  58  96 NE7       30.00F FOG
STAPLES        LGT RAIN  55  55 100 NE3       29.99R
LITTLE FALLS   RAIN     N/A N/A N/A NE8         N/A
LITCHFIELD     CLOUDY    68  68 100 NE5       29.95S
BUFFALO        CLOUDY    70  65  84 NW8       29.96R
MAPLE LAKE     CLOUDY    69  66  89 N10       29.95F
HUTCHINSON     CLOUDY    69  67  93 CALM      29.95F
$$
MNZ037-044-045-052-053-240300-
   East Central Minnesota

CITY           SKY/WX    TMP DP  RH WIND       PRES   REMARKS
PRINCETON      CLOUDY    72  66  83 SW17G25   29.99R
MORA           CLOUDY    68  64  88 W18       30.02R
RUSH CITY      CLOUDY    73  70  93 NE3       29.95S
MOOSE LAKE     CLOUDY    68  64  88 N5        29.99R
HINCKLEY       FAIR      72  70  94 N5        29.97R
CLOQUET        CLOUDY    66  63  88 N9        30.00R
MCGREGOR       CLOUDY    63  59  88 N6        30.02S
$$
MNZ071>073-080-081-089-090-097-098-240300-
   Southwest Minnesota

CITY           SKY/WX    TMP DP  RH WIND       PRES   REMARKS
MONTEVIDEO     RAIN      57  57 100 N5        29.93F
GRANITE FALLS  MOCLDY    60  59  97 NW6       29.94F
CANBY          CLOUDY    56  55  96 NW5       29.95F
MARSHALL       CLOUDY    57  56  96 NW5       29.94S
REDWOOD FALLS  CLOUDY    65  61  87 N3        29.92S
OLIVIA         CLOUDY    64  63  94 CALM      29.92S
PIPESTONE      CLOUDY    64  63  94 E9        29.91F
WORTHINGTON    MOCLDY    63  61  93 NE6       29.94S
JACKSON        MOCLDY    66  63  88 CALM      29.94S
TRACY          CLOUDY    63  62  97 CALM      29.94S
SLAYTON        CLOUDY    62  53  72 NE3       29.95S
$$
MNZ065>067-074>077-082>085-091>093-240300-
   South Central Minnesota

CITY           SKY/WX    TMP DP  RH WIND       PRES   REMARKS
MANKATO        MOCLDY    78  65  63 S8        29.92S
NEW ULM        MOCLDY    68  64  88 NE3       29.92F
ST JAMES       MOCLDY    66  64  94 NW3       29.94S
FAIRMONT       PTCLDY    77  65  66 S9        29.93R
FARIBAULT      PTCLDY    77  66  69 SE5       29.94S
OWATONNA       PTCLDY    79  64  61 SE8       29.95R
WASECA         PTCLDY    73  63  68 SE7       29.95S
ALBERT LEA     CLEAR     81  64  57 S6        29.96S
$$
MNZ078>079-086>088-094>096-240300-
   Southeast Minnesota

CITY           SKY/WX    TMP DP  RH WIND       PRES   REMARKS
ROCHESTER      PTCLDY    73  64  73 S8        29.99R
RED WING       MOCLDY    77  66  69 CALM      29.94R
STANTON        CLOUDY    77  66  68 SE5       29.93R
DODGE CENTER   PTCLDY    72  63  73 SE7       29.98R
WINONA         CLEAR     73  68  83 CALM      29.97S
AUSTIN         PTCLDY    73  63  68 SE5       29.97S
PRESTON        CLEAR     74  62  64 S3        30.00S
$$
ABBREVIATIONS USED IN REMARKS
   TC - TEMPERATURES IN CELSIUS
  WCI - WIND CHILL INDEX
   HX - HEAT INDEX
  VSB - VISIBILITY
$$



USA.gov is the U.S. government's official web portal to all federal, state and local government web resources and services.